owner,sensor,date,latitude,longitude,vertical_datum,direction_of_sea_water_velocity,sea_water_speed,upward_sea_water_velocity,qcFlag 
ADCP,ioos:station:wmo:42377:1,2012-10-01T00:04:00Z,27.2930,-90.9680,21.3,160.0,38.8,-9999.0,'11111222,11111222,99999999' 
ADCP,ioos:station:wmo:42377:1,2012-10-01T00:24:00Z,27.2930,-90.9680,21.3,157.0,39.4,-9999.0,'11111222,11111222,99999999' 
ADCP,ioos:station:wmo:42377:1,2012-10-01T00:44:00Z,27.2930,-90.9680,21.3,159.0,39.8,-9999.0,'11111222,11111222,99999999' 
ADCP,ioos:station:wmo:42377:1,2012-10-01T01:04:00Z,27.2930,-90.9680,21.3,149.0,40.4,-9999.0,'11111222,11111222,99999999' 
ADCP,ioos:station:wmo:42377:1,2012-10-01T01:24:00Z,27.2930,-90.9680,21.3,148.0,42.5,-9999.0,'11111222,11111222,99999999' 
ADCP,ioos:station:wmo:42377:1,2012-10-01T01:44:00Z,27.2930,-90.9680,21.3,144.0,43.4,-9999.0,'11111222,11111222,99999999' 
ADCP,ioos:station:wmo:42377:1,2012-10-01T02:04:00Z,27.2930,-90.9680,21.3,143.0,46.3,-9999.0,'11111222,11111222,99999999' 
ADCP,ioos:station:wmo:42377:1,2012-10-01T02:24:00Z,27.2930,-90.9680,21.3,137.0,50.0,-9999.0,'11111222,11111222,99999999' 
ADCP,ioos:station:wmo:42377:1,2012-10-01T02:44:00Z,27.2930,-90.9680,21.3,135.0,52.1,-9999.0,'11111222,11111222,99999999' 
ADCP,ioos:station:wmo:42377:1,2012-10-01T03:04:00Z,27.2930,-90.9680,21.3,130.0,54.0,-9999.0,'11111222,11111222,99999999' 
ADCP,ioos:station:wmo:42377:1,2012-10-01T03:24:00Z,27.2930,-90.9680,21.3,132.0,52.7,-9999.0,'11111222,11111222,99999999' 
ADCP,ioos:station:wmo:42377:1,2012-10-01T03:44:00Z,27.2930,-90.9680,21.3,129.0,53.3,-9999.0,'11111222,11111222,99999999' 
ADCP,ioos:station:wmo:42377:1,2012-10-01T04:04:00Z,27.2930,-90.9680,21.3,129.0,53.5,-9999.0,'11111222,11111222,99999999' 
ADCP,ioos:station:wmo:42377:1,2012-10-01T04:24:00Z,27.2930,-90.9680,21.3,133.0,51.9,-9999.0,'11111222,11111222,99999999' 
ADCP,ioos:station:wmo:42377:1,2012-10-01T04:44:00Z,27.2930,-90.9680,21.3,128.0,51.7,-9999.0,'11111222,11111222,99999999' 
ADCP,ioos:station:wmo:42377:1,2012-10-01T05:04:00Z,27.2930,-90.9680,21.3,128.0,49.3,-9999.0,'11111222,11111222,99999999' 
ADCP,ioos:station:wmo:42377:1,2012-10-01T05:24:00Z,27.2930,-90.9680,21.3,127.0,49.2,-9999.0,'11111222,11111222,99999999' 
ADCP,ioos:station:wmo:42377:1,2012-10-01T05:44:00Z,27.2930,-90.9680,21.3,126.0,50.8,-9999.0,'11111222,11111222,99999999' 
ADCP,ioos:station:wmo:42377:1,2012-10-01T06:04:00Z,27.2930,-90.9680,21.3,126.0,50.1,-9999.0,'11111222,11111222,99999999' 
ADCP,ioos:station:wmo:42377:1,2012-10-01T06:24:00Z,27.2930,-90.9680,21.3,124.0,53.5,-9999.0,'11111222,11111222,99999999' 
ADCP,ioos:station:wmo:42377:1,2012-10-01T06:44:00Z,27.2930,-90.9680,21.3,122.0,52.7,-9999.0,'11111222,11111222,99999999' 
ADCP,ioos:station:wmo:42377:1,2012-10-01T07:04:00Z,27.2930,-90.9680,21.3,122.0,55.1,-9999.0,'11111222,11111222,99999999' 
ADCP,ioos:station:wmo:42377:1,2012-10-01T07:24:00Z,27.2930,-90.9680,21.3,121.0,53.9,-9999.0,'11111222,11111222,99999999' 
ADCP,ioos:station:wmo:42377:1,2012-10-01T07:44:00Z,27.2930,-90.9680,21.3,118.0,54.8,-9999.0,'11111222,11111222,99999999' 
ADCP,ioos:station:wmo:42377:1,2012-10-01T08:04:00Z,27.2930,-90.9680,21.3,118.0,50.5,-9999.0,'11111222,11111222,99999999' 
ADCP,ioos:station:wmo:42377:1,2012-10-01T08:24:00Z,27.2930,-90.9680,21.3,113.0,51.9,-9999.0,'11111222,11111222,99999999' 
ADCP,ioos:station:wmo:42377:1,2012-10-01T08:44:00Z,27.2930,-90.9680,21.3,120.0,48.3,-9999.0,'11111222,11111222,99999999' 
ADCP,ioos:station:wmo:42377:1,2012-10-01T09:04:00Z,27.2930,-90.9680,21.3,124.0,44.2,-9999.0,'11111222,11111222,99999999' 
ADCP,ioos:station:wmo:42377:1,2012-10-01T09:24:00Z,27.2930,-90.9680,21.3,122.0,44.3,-9999.0,'11111222,11111222,99999999' 
ADCP,ioos:station:wmo:42377:1,2012-10-01T09:44:00Z,27.2930,-90.9680,21.3,122.0,41.7,-9999.0,'11111222,11111222,99999999' 
ADCP,ioos:station:wmo:42377:1,2012-10-01T10:04:00Z,27.2930,-90.9680,21.3,131.0,38.2,-9999.0,'11111222,11111222,99999999' 
ADCP,ioos:station:wmo:42377:1,2012-10-01T10:24:00Z,27.2930,-90.9680,21.3,124.0,41.0,-9999.0,'11111222,11111222,99999999' 
ADCP,ioos:station:wmo:42377:1,2012-10-01T10:44:00Z,27.2930,-90.9680,21.3,128.0,37.3,-9999.0,'11111222,11111222,99999999' 
ADCP,ioos:station:wmo:42377:1,2012-10-01T11:04:00Z,27.2930,-90.9680,21.3,126.0,36.1,-9999.0,'11111222,11111222,99999999' 
ADCP,ioos:station:wmo:42377:1,2012-10-01T11:24:00Z,27.2930,-90.9680,21.3,121.0,37.5,-9999.0,'11111222,11111222,99999999' 
ADCP,ioos:station:wmo:42377:1,2012-10-01T11:44:00Z,27.2930,-90.9680,21.3,127.0,35.7,-9999.0,'11111222,11111222,99999999' 
ADCP,ioos:station:wmo:42377:1,2012-10-01T12:04:00Z,27.2930,-90.9680,21.3,123.0,33.4,-9999.0,'11111222,11111222,99999999' 
ADCP,ioos:station:wmo:42377:1,2012-10-01T12:24:00Z,27.2930,-90.9680,21.3,117.0,35.6,-9999.0,'11111222,11111222,99999999' 
ADCP,ioos:station:wmo:42377:1,2012-10-01T12:44:00Z,27.2930,-90.9680,21.3,128.0,30.3,-9999.0,'11111222,11111222,99999999' 
ADCP,ioos:station:wmo:42377:1,2012-10-01T13:04:00Z,27.2930,-90.9680,21.3,123.0,30.6,-9999.0,'11111222,11111222,99999999' 
ADCP,ioos:station:wmo:42377:1,2012-10-01T13:24:00Z,27.2930,-90.9680,21.3,122.0,27.1,-9999.0,'11111222,11111222,99999999' 
ADCP,ioos:station:wmo:42377:1,2012-10-01T13:44:00Z,27.2930,-90.9680,21.3,123.0,24.7,-9999.0,'11111222,11111222,99999999' 
ADCP,ioos:station:wmo:42377:1,2012-10-01T14:04:00Z,27.2930,-90.9680,21.3,122.0,22.0,-9999.0,'11111222,11111222,99999999' 
ADCP,ioos:station:wmo:42377:1,2012-10-01T14:24:00Z,27.2930,-90.9680,21.3,129.0,20.1,-9999.0,'11111222,11111222,99999999' 
ADCP,ioos:station:wmo:42377:1,2012-10-01T14:44:00Z,27.2930,-90.9680,21.3,115.0,20.2,-9999.0,'11111222,11111222,99999999' 
ADCP,ioos:station:wmo:42377:1,2012-10-01T15:04:00Z,27.2930,-90.9680,21.3,123.0,19.0,-9999.0,'11111222,11111222,99999999' 
ADCP,ioos:station:wmo:42377:1,2012-10-01T15:24:00Z,27.2930,-90.9680,21.3,127.0,16.5,-9999.0,'11111222,11111222,99999999' 
ADCP,ioos:station:wmo:42377:1,2012-10-01T15:44:00Z,27.2930,-90.9680,21.3,131.0,14.7,-9999.0,'11111222,11111222,99999999' 
ADCP,ioos:station:wmo:42377:1,2012-10-01T16:04:00Z,27.2930,-90.9680,21.3,123.0,13.3,-9999.0,'11111222,11111222,99999999' 
ADCP,ioos:station:wmo:42377:1,2012-10-01T16:24:00Z,27.2930,-90.9680,21.3,122.0,14.4,-9999.0,'11111222,11111222,99999999' 
ADCP,ioos:station:wmo:42377:1,2012-10-01T16:44:00Z,27.2930,-90.9680,21.3,123.0,14.0,-9999.0,'11111222,11111222,99999999' 
ADCP,ioos:station:wmo:42377:1,2012-10-01T17:04:00Z,27.2930,-90.9680,21.3,124.0,12.6,-9999.0,'11111222,11111222,99999999' 
ADCP,ioos:station:wmo:42377:1,2012-10-01T17:24:00Z,27.2930,-90.9680,21.3,120.0,11.7,-9999.0,'11111222,11111222,99999999' 
ADCP,ioos:station:wmo:42377:1,2012-10-01T17:44:00Z,27.2930,-90.9680,21.3,145.0,9.8,-9999.0,'11133222,11111222,99999999' 
ADCP,ioos:station:wmo:42377:1,2012-10-01T18:04:00Z,27.2930,-90.9680,21.3,140.0,8.6,-9999.0,'11133222,11111222,99999999' 
ADCP,ioos:station:wmo:42377:1,2012-10-01T18:24:00Z,27.2930,-90.9680,21.3,150.0,9.2,-9999.0,'11133222,11111222,99999999' 
ADCP,ioos:station:wmo:42377:1,2012-10-01T18:44:00Z,27.2930,-90.9680,21.3,143.0,9.1,-9999.0,'11133222,11111222,99999999' 
ADCP,ioos:station:wmo:42377:1,2012-10-01T19:04:00Z,27.2930,-90.9680,21.3,136.0,10.5,-9999.0,'11111222,11111222,99999999' 
ADCP,ioos:station:wmo:42377:1,2012-10-01T19:24:00Z,27.2930,-90.9680,21.3,124.0,14.0,-9999.0,'11111222,11111222,99999999' 
ADCP,ioos:station:wmo:42377:1,2012-10-01T19:44:00Z,27.2930,-90.9680,21.3,122.0,15.8,-9999.0,'11111222,11111222,99999999' 
ADCP,ioos:station:wmo:42377:1,2012-10-01T20:04:00Z,27.2930,-90.9680,21.3,114.0,18.0,-9999.0,'11111222,11111222,99999999' 
ADCP,ioos:station:wmo:42377:1,2012-10-01T20:24:00Z,27.2930,-90.9680,21.3,109.0,19.5,-9999.0,'11111222,11111222,99999999' 
ADCP,ioos:station:wmo:42377:1,2012-10-01T20:44:00Z,27.2930,-90.9680,21.3,108.0,22.5,-9999.0,'11111222,11111222,99999999' 
ADCP,ioos:station:wmo:42377:1,2012-10-01T21:04:00Z,27.2930,-90.9680,21.3,110.0,24.8,-9999.0,'11111222,11111222,99999999' 
ADCP,ioos:station:wmo:42377:1,2012-10-01T21:24:00Z,27.2930,-90.9680,21.3,110.0,27.4,-9999.0,'11111222,11111222,99999999' 
ADCP,ioos:station:wmo:42377:1,2012-10-01T21:44:00Z,27.2930,-90.9680,21.3,111.0,29.7,-9999.0,'11111222,11111222,99999999' 
ADCP,ioos:station:wmo:42377:1,2012-10-01T22:04:00Z,27.2930,-90.9680,21.3,109.0,30.6,-9999.0,'11111222,11111222,99999999' 
ADCP,ioos:station:wmo:42377:1,2012-10-01T22:24:00Z,27.2930,-90.9680,21.3,109.0,31.6,-9999.0,'11111222,11111222,99999999' 
ADCP,ioos:station:wmo:42377:1,2012-10-01T22:44:00Z,27.2930,-90.9680,21.3,120.0,31.0,-9999.0,'11111222,11111222,99999999' 
ADCP,ioos:station:wmo:42377:1,2012-10-01T23:04:00Z,27.2930,-90.9680,21.3,123.0,30.7,-9999.0,'11111222,11111222,99999999' 
ADCP,ioos:station:wmo:42377:1,2012-10-01T23:24:00Z,27.2930,-90.9680,21.3,125.0,30.3,-9999.0,'11111222,11111222,99999999' 
ADCP,ioos:station:wmo:42377:1,2012-10-01T23:44:00Z,27.2930,-90.9680,21.3,129.0,30.8,-9999.0,'11111222,11111222,99999999' 
ADCP,ioos:station:wmo:42377:1,2012-10-02T00:04:00Z,27.2930,-90.9680,21.3,138.0,30.1,-9999.0,'11111222,11111222,99999999' 
ADCP,ioos:station:wmo:42377:1,2012-10-02T00:24:00Z,27.2930,-90.9680,21.3,141.0,30.4,-9999.0,'11111222,11111222,99999999' 
ADCP,ioos:station:wmo:42377:1,2012-10-02T00:44:00Z,27.2930,-90.9680,21.3,153.0,30.3,-9999.0,'11111222,11111222,99999999' 
ADCP,ioos:station:wmo:42377:1,2012-10-02T01:04:00Z,27.2930,-90.9680,21.3,162.0,30.3,-9999.0,'11111222,11111222,99999999' 
ADCP,ioos:station:wmo:42377:1,2012-10-02T01:24:00Z,27.2930,-90.9680,21.3,162.0,30.8,-9999.0,'11111222,11111222,99999999' 
ADCP,ioos:station:wmo:42377:1,2012-10-02T01:44:00Z,27.2930,-90.9680,21.3,161.0,30.3,-9999.0,'11111222,11111222,99999999' 
ADCP,ioos:station:wmo:42377:1,2012-10-02T02:04:00Z,27.2930,-90.9680,21.3,171.0,31.2,-9999.0,'11111222,11111222,99999999' 
ADCP,ioos:station:wmo:42377:1,2012-10-02T02:24:00Z,27.2930,-90.9680,21.3,164.0,28.9,-9999.0,'11111222,11111222,99999999' 
ADCP,ioos:station:wmo:42377:1,2012-10-02T02:44:00Z,27.2930,-90.9680,21.3,157.0,28.4,-9999.0,'11111222,11111222,99999999' 
ADCP,ioos:station:wmo:42377:1,2012-10-02T03:04:00Z,27.2930,-90.9680,21.3,149.0,30.2,-9999.0,'11111222,11111222,99999999' 
ADCP,ioos:station:wmo:42377:1,2012-10-02T03:24:00Z,27.2930,-90.9680,21.3,149.0,30.5,-9999.0,'11111222,11111222,99999999' 
ADCP,ioos:station:wmo:42377:1,2012-10-02T03:44:00Z,27.2930,-90.9680,21.3,142.0,33.0,-9999.0,'11111222,11111222,99999999' 
ADCP,ioos:station:wmo:42377:1,2012-10-02T04:04:00Z,27.2930,-90.9680,21.3,143.0,33.0,-9999.0,'11111222,11111222,99999999' 
ADCP,ioos:station:wmo:42377:1,2012-10-02T04:24:00Z,27.2930,-90.9680,21.3,140.0,34.4,-9999.0,'11111222,11111222,99999999' 
ADCP,ioos:station:wmo:42377:1,2012-10-02T04:44:00Z,27.2930,-90.9680,21.3,134.0,38.2,-9999.0,'11111222,11111222,99999999' 
ADCP,ioos:station:wmo:42377:1,2012-10-02T05:04:00Z,27.2930,-90.9680,21.3,136.0,35.1,-9999.0,'11111222,11111222,99999999' 
ADCP,ioos:station:wmo:42377:1,2012-10-02T05:24:00Z,27.2930,-90.9680,21.3,141.0,33.0,-9999.0,'11111222,11111222,99999999' 
ADCP,ioos:station:wmo:42377:1,2012-10-02T05:44:00Z,27.2930,-90.9680,21.3,133.0,35.5,-9999.0,'11111222,11111222,99999999' 
ADCP,ioos:station:wmo:42377:1,2012-10-02T06:04:00Z,27.2930,-90.9680,21.3,136.0,35.8,-9999.0,'11111222,11111222,99999999' 
ADCP,ioos:station:wmo:42377:1,2012-10-02T06:24:00Z,27.2930,-90.9680,21.3,134.0,34.7,-9999.0,'11111222,11111222,99999999' 
ADCP,ioos:station:wmo:42377:1,2012-10-02T06:44:00Z,27.2930,-90.9680,21.3,126.0,36.7,-9999.0,'11111222,11111222,99999999' 
ADCP,ioos:station:wmo:42377:1,2012-10-02T07:04:00Z,27.2930,-90.9680,21.3,128.0,36.6,-9999.0,'11111222,11111222,99999999' 
ADCP,ioos:station:wmo:42377:1,2012-10-02T07:24:00Z,27.2930,-90.9680,21.3,133.0,32.8,-9999.0,'11111222,11111222,99999999' 
ADCP,ioos:station:wmo:42377:1,2012-10-02T07:44:00Z,27.2930,-90.9680,21.3,123.0,36.8,-9999.0,'11111222,11111222,99999999' 
ADCP,ioos:station:wmo:42377:1,2012-10-02T08:04:00Z,27.2930,-90.9680,21.3,125.0,33.5,-9999.0,'11111222,11111222,99999999' 
ADCP,ioos:station:wmo:42377:1,2012-10-02T08:24:00Z,27.2930,-90.9680,21.3,121.0,34.4,-9999.0,'11111222,11111222,99999999' 
ADCP,ioos:station:wmo:42377:1,2012-10-02T08:44:00Z,27.2930,-90.9680,21.3,120.0,31.6,-9999.0,'11111222,11111222,99999999' 
ADCP,ioos:station:wmo:42377:1,2012-10-02T09:04:00Z,27.2930,-90.9680,21.3,123.0,32.3,-9999.0,'11111222,11111222,99999999' 
ADCP,ioos:station:wmo:42377:1,2012-10-02T09:24:00Z,27.2930,-90.9680,21.3,125.0,32.8,-9999.0,'11111222,11111222,99999999' 
ADCP,ioos:station:wmo:42377:1,2012-10-02T09:44:00Z,27.2930,-90.9680,21.3,119.0,35.9,-9999.0,'11111222,11111222,99999999' 
ADCP,ioos:station:wmo:42377:1,2012-10-02T10:04:00Z,27.2930,-90.9680,21.3,118.0,35.7,-9999.0,'11111222,11111222,99999999' 
ADCP,ioos:station:wmo:42377:1,2012-10-02T10:24:00Z,27.2930,-90.9680,21.3,124.0,34.3,-9999.0,'11111222,11111222,99999999' 
ADCP,ioos:station:wmo:42377:1,2012-10-02T10:44:00Z,27.2930,-90.9680,21.3,119.0,34.8,-9999.0,'11111222,11111222,99999999' 
ADCP,ioos:station:wmo:42377:1,2012-10-02T11:04:00Z,27.2930,-90.9680,21.3,120.0,34.0,-9999.0,'11111222,11111222,99999999' 
ADCP,ioos:station:wmo:42377:1,2012-10-02T11:24:00Z,27.2930,-90.9680,21.3,121.0,33.9,-9999.0,'11111222,11111222,99999999' 
ADCP,ioos:station:wmo:42377:1,2012-10-02T11:44:00Z,27.2930,-90.9680,21.3,126.0,30.3,-9999.0,'11111222,11111222,99999999' 
ADCP,ioos:station:wmo:42377:1,2012-10-02T12:04:00Z,27.2930,-90.9680,21.3,127.0,31.7,-9999.0,'11111222,11111222,99999999' 
ADCP,ioos:station:wmo:42377:1,2012-10-02T12:24:00Z,27.2930,-90.9680,21.3,123.0,27.4,-9999.0,'11111222,11111222,99999999' 
ADCP,ioos:station:wmo:42377:1,2012-10-02T12:44:00Z,27.2930,-90.9680,21.3,128.0,27.4,-9999.0,'11111222,11111222,99999999' 
ADCP,ioos:station:wmo:42377:1,2012-10-02T13:04:00Z,27.2930,-90.9680,21.3,129.0,28.2,-9999.0,'11111222,11111222,99999999' 
ADCP,ioos:station:wmo:42377:1,2012-10-02T13:24:00Z,27.2930,-90.9680,21.3,127.0,28.7,-9999.0,'11111222,11111222,99999999' 
ADCP,ioos:station:wmo:42377:1,2012-10-02T13:44:00Z,27.2930,-90.9680,21.3,127.0,29.8,-9999.0,'11111222,11111222,99999999' 
ADCP,ioos:station:wmo:42377:1,2012-10-02T14:04:00Z,27.2930,-90.9680,21.3,130.0,27.3,-9999.0,'11111222,11111222,99999999' 
ADCP,ioos:station:wmo:42377:1,2012-10-02T14:24:00Z,27.2930,-90.9680,21.3,130.0,26.8,-9999.0,'11111222,11111222,99999999' 
ADCP,ioos:station:wmo:42377:1,2012-10-02T14:44:00Z,27.2930,-90.9680,21.3,123.0,28.7,-9999.0,'11111222,11111222,99999999' 
ADCP,ioos:station:wmo:42377:1,2012-10-02T15:04:00Z,27.2930,-90.9680,21.3,127.0,25.0,-9999.0,'11111222,11111222,99999999' 
ADCP,ioos:station:wmo:42377:1,2012-10-02T15:24:00Z,27.2930,-90.9680,21.3,126.0,24.9,-9999.0,'11111222,11111222,99999999' 
ADCP,ioos:station:wmo:42377:1,2012-10-02T15:44:00Z,27.2930,-90.9680,21.3,133.0,21.4,-9999.0,'11111222,11111222,99999999' 
ADCP,ioos:station:wmo:42377:1,2012-10-02T16:04:00Z,27.2930,-90.9680,21.3,153.0,17.9,-9999.0,'11111222,11111222,99999999' 
ADCP,ioos:station:wmo:42377:1,2012-10-02T16:24:00Z,27.2930,-90.9680,21.3,157.0,15.6,-9999.0,'11111222,11111222,99999999' 
ADCP,ioos:station:wmo:42377:1,2012-10-02T16:44:00Z,27.2930,-90.9680,21.3,168.0,14.9,-9999.0,'11111222,11111222,99999999' 
ADCP,ioos:station:wmo:42377:1,2012-10-02T17:04:00Z,27.2930,-90.9680,21.3,180.0,14.5,-9999.0,'11111222,11111222,99999999' 
ADCP,ioos:station:wmo:42377:1,2012-10-02T17:24:00Z,27.2930,-90.9680,21.3,168.0,15.6,-9999.0,'11111222,11111222,99999999' 
ADCP,ioos:station:wmo:42377:1,2012-10-02T17:44:00Z,27.2930,-90.9680,21.3,167.0,16.6,-9999.0,'11111222,11111222,99999999' 
ADCP,ioos:station:wmo:42377:1,2012-10-02T18:04:00Z,27.2930,-90.9680,21.3,159.0,17.9,-9999.0,'11111222,11111222,99999999' 
ADCP,ioos:station:wmo:42377:1,2012-10-02T18:24:00Z,27.2930,-90.9680,21.3,156.0,18.3,-9999.0,'11111222,11111222,99999999' 
ADCP,ioos:station:wmo:42377:1,2012-10-02T18:44:00Z,27.2930,-90.9680,21.3,145.0,18.1,-9999.0,'11111222,11111222,99999999' 
ADCP,ioos:station:wmo:42377:1,2012-10-02T19:04:00Z,27.2930,-90.9680,21.3,140.0,19.9,-9999.0,'11111222,11111222,99999999' 
ADCP,ioos:station:wmo:42377:1,2012-10-02T19:24:00Z,27.2930,-90.9680,21.3,128.0,22.1,-9999.0,'11111222,11111222,99999999' 
ADCP,ioos:station:wmo:42377:1,2012-10-02T19:44:00Z,27.2930,-90.9680,21.3,126.0,22.2,-9999.0,'11111222,11111222,99999999' 
ADCP,ioos:station:wmo:42377:1,2012-10-02T20:04:00Z,27.2930,-90.9680,21.3,131.0,21.9,-9999.0,'11111222,11111222,99999999' 
ADCP,ioos:station:wmo:42377:1,2012-10-02T20:24:00Z,27.2930,-90.9680,21.3,132.0,22.6,-9999.0,'11111222,11111222,99999999' 
ADCP,ioos:station:wmo:42377:1,2012-10-02T20:44:00Z,27.2930,-90.9680,21.3,131.0,23.1,-9999.0,'11111222,11111222,99999999' 
ADCP,ioos:station:wmo:42377:1,2012-10-02T21:04:00Z,27.2930,-90.9680,21.3,130.0,25.0,-9999.0,'11111222,11111222,99999999' 
ADCP,ioos:station:wmo:42377:1,2012-10-02T21:24:00Z,27.2930,-90.9680,21.3,127.0,25.8,-9999.0,'11111222,11111222,99999999' 
ADCP,ioos:station:wmo:42377:1,2012-10-02T21:44:00Z,27.2930,-90.9680,21.3,125.0,27.7,-9999.0,'11111222,11111222,99999999' 
ADCP,ioos:station:wmo:42377:1,2012-10-02T22:04:00Z,27.2930,-90.9680,21.3,122.0,29.3,-9999.0,'11111222,11111222,99999999' 
ADCP,ioos:station:wmo:42377:1,2012-10-02T22:24:00Z,27.2930,-90.9680,21.3,125.0,29.2,-9999.0,'11111222,11111222,99999999' 
ADCP,ioos:station:wmo:42377:1,2012-10-02T22:44:00Z,27.2930,-90.9680,21.3,127.0,30.1,-9999.0,'11111222,11111222,99999999' 
ADCP,ioos:station:wmo:42377:1,2012-10-02T23:04:00Z,27.2930,-90.9680,21.3,135.0,29.5,-9999.0,'11111222,11111222,99999999' 
ADCP,ioos:station:wmo:42377:1,2012-10-02T23:24:00Z,27.2930,-90.9680,21.3,121.0,32.2,-9999.0,'11111222,11111222,99999999' 
ADCP,ioos:station:wmo:42377:1,2012-10-02T23:44:00Z,27.2930,-90.9680,21.3,128.0,32.4,-9999.0,'11111222,11111222,99999999' 
ADCP,ioos:station:wmo:42377:1,2012-10-03T00:04:00Z,27.2930,-90.9680,21.3,123.0,33.7,-9999.0,'11111222,11111222,99999999' 
ADCP,ioos:station:wmo:42377:1,2012-10-03T00:24:00Z,27.2930,-90.9680,21.3,126.0,33.4,-9999.0,'11111222,11111222,99999999' 
ADCP,ioos:station:wmo:42377:1,2012-10-03T00:44:00Z,27.2930,-90.9680,21.3,141.0,30.5,-9999.0,'11111222,11111222,99999999' 
ADCP,ioos:station:wmo:42377:1,2012-10-03T01:04:00Z,27.2930,-90.9680,21.3,133.0,32.7,-9999.0,'11111222,11111222,99999999' 
ADCP,ioos:station:wmo:42377:1,2012-10-03T01:24:00Z,27.2930,-90.9680,21.3,147.0,27.7,-9999.0,'11111222,11111222,99999999' 
ADCP,ioos:station:wmo:42377:1,2012-10-03T01:44:00Z,27.2930,-90.9680,21.3,170.0,27.7,-9999.0,'11111222,11111222,99999999' 
ADCP,ioos:station:wmo:42377:1,2012-10-03T02:04:00Z,27.2930,-90.9680,21.3,162.0,33.0,-9999.0,'11111222,11111222,99999999' 
ADCP,ioos:station:wmo:42377:1,2012-10-03T02:24:00Z,27.2930,-90.9680,21.3,155.0,33.9,-9999.0,'11111222,11111222,99999999' 
ADCP,ioos:station:wmo:42377:1,2012-10-03T02:44:00Z,27.2930,-90.9680,21.3,165.0,33.3,-9999.0,'11111222,11111222,99999999' 
ADCP,ioos:station:wmo:42377:1,2012-10-03T03:04:00Z,27.2930,-90.9680,21.3,178.0,36.6,-9999.0,'11111222,11111222,99999999' 
ADCP,ioos:station:wmo:42377:1,2012-10-03T03:24:00Z,27.2930,-90.9680,21.3,188.0,38.2,-9999.0,'11111222,11111222,99999999' 
ADCP,ioos:station:wmo:42377:1,2012-10-03T03:44:00Z,27.2930,-90.9680,21.3,187.0,37.1,-9999.0,'11111222,11111222,99999999' 
ADCP,ioos:station:wmo:42377:1,2012-10-03T04:04:00Z,27.2930,-90.9680,21.3,196.0,38.1,-9999.0,'11111222,11111222,99999999' 
ADCP,ioos:station:wmo:42377:1,2012-10-03T04:24:00Z,27.2930,-90.9680,21.3,195.0,37.7,-9999.0,'11111222,11111222,99999999' 
ADCP,ioos:station:wmo:42377:1,2012-10-03T04:44:00Z,27.2930,-90.9680,21.3,199.0,37.8,-9999.0,'11111222,11111222,99999999' 
ADCP,ioos:station:wmo:42377:1,2012-10-03T05:04:00Z,27.2930,-90.9680,21.3,193.0,34.8,-9999.0,'11111222,11111222,99999999' 
ADCP,ioos:station:wmo:42377:1,2012-10-03T05:24:00Z,27.2930,-90.9680,21.3,185.0,29.6,-9999.0,'11111222,11111222,99999999' 
ADCP,ioos:station:wmo:42377:1,2012-10-03T05:44:00Z,27.2930,-90.9680,21.3,176.0,29.6,-9999.0,'11111222,11111222,99999999' 
ADCP,ioos:station:wmo:42377:1,2012-10-03T06:04:00Z,27.2930,-90.9680,21.3,184.0,29.4,-9999.0,'11111222,11111222,99999999' 
ADCP,ioos:station:wmo:42377:1,2012-10-03T06:24:00Z,27.2930,-90.9680,21.3,179.0,28.5,-9999.0,'11111222,11111222,99999999' 
ADCP,ioos:station:wmo:42377:1,2012-10-03T06:44:00Z,27.2930,-90.9680,21.3,163.0,32.4,-9999.0,'11111222,11111222,99999999' 
ADCP,ioos:station:wmo:42377:1,2012-10-03T07:04:00Z,27.2930,-90.9680,21.3,167.0,32.2,-9999.0,'11111222,11111222,99999999' 
ADCP,ioos:station:wmo:42377:1,2012-10-03T07:24:00Z,27.2930,-90.9680,21.3,156.0,36.0,-9999.0,'11111222,11111222,99999999' 
ADCP,ioos:station:wmo:42377:1,2012-10-03T07:44:00Z,27.2930,-90.9680,21.3,158.0,35.8,-9999.0,'11111222,11111222,99999999' 
ADCP,ioos:station:wmo:42377:1,2012-10-03T08:04:00Z,27.2930,-90.9680,21.3,155.0,34.9,-9999.0,'11111222,11111222,99999999' 
ADCP,ioos:station:wmo:42377:1,2012-10-03T08:24:00Z,27.2930,-90.9680,21.3,143.0,37.6,-9999.0,'11111222,11111222,99999999' 
ADCP,ioos:station:wmo:42377:1,2012-10-03T08:44:00Z,27.2930,-90.9680,21.3,141.0,37.2,-9999.0,'11111222,11111222,99999999' 
ADCP,ioos:station:wmo:42377:1,2012-10-03T09:04:00Z,27.2930,-90.9680,21.3,138.0,35.3,-9999.0,'11111222,11111222,99999999' 
ADCP,ioos:station:wmo:42377:1,2012-10-03T09:24:00Z,27.2930,-90.9680,21.3,142.0,34.2,-9999.0,'11111222,11111222,99999999' 
ADCP,ioos:station:wmo:42377:1,2012-10-03T09:44:00Z,27.2930,-90.9680,21.3,135.0,38.1,-9999.0,'11111222,11111222,99999999' 
ADCP,ioos:station:wmo:42377:1,2012-10-03T10:04:00Z,27.2930,-90.9680,21.3,136.0,35.4,-9999.0,'11111222,11111222,99999999' 
ADCP,ioos:station:wmo:42377:1,2012-10-03T10:24:00Z,27.2930,-90.9680,21.3,140.0,34.7,-9999.0,'11111222,11111222,99999999' 
ADCP,ioos:station:wmo:42377:1,2012-10-03T10:44:00Z,27.2930,-90.9680,21.3,137.0,37.9,-9999.0,'11111222,11111222,99999999' 
ADCP,ioos:station:wmo:42377:1,2012-10-03T11:04:00Z,27.2930,-90.9680,21.3,125.0,35.8,-9999.0,'11111222,11111222,99999999' 
ADCP,ioos:station:wmo:42377:1,2012-10-03T11:24:00Z,27.2930,-90.9680,21.3,133.0,33.6,-9999.0,'11111222,11111222,99999999' 
ADCP,ioos:station:wmo:42377:1,2012-10-03T11:44:00Z,27.2930,-90.9680,21.3,130.0,33.3,-9999.0,'11111222,11111222,99999999' 
ADCP,ioos:station:wmo:42377:1,2012-10-03T12:04:00Z,27.2930,-90.9680,21.3,134.0,33.4,-9999.0,'11111222,11111222,99999999' 
ADCP,ioos:station:wmo:42377:1,2012-10-03T12:24:00Z,27.2930,-90.9680,21.3,119.0,36.5,-9999.0,'11111222,11111222,99999999' 
ADCP,ioos:station:wmo:42377:1,2012-10-03T12:44:00Z,27.2930,-90.9680,21.3,125.0,32.8,-9999.0,'11111222,11111222,99999999' 
ADCP,ioos:station:wmo:42377:1,2012-10-03T13:04:00Z,27.2930,-90.9680,21.3,135.0,33.0,-9999.0,'11111222,11111222,99999999' 
ADCP,ioos:station:wmo:42377:1,2012-10-03T13:24:00Z,27.2930,-90.9680,21.3,133.0,31.3,-9999.0,'11111222,11111222,99999999' 
ADCP,ioos:station:wmo:42377:1,2012-10-03T13:44:00Z,27.2930,-90.9680,21.3,134.0,30.9,-9999.0,'11111222,11111222,99999999' 
ADCP,ioos:station:wmo:42377:1,2012-10-03T14:04:00Z,27.2930,-90.9680,21.3,135.0,24.8,-9999.0,'11111222,11111222,99999999' 
ADCP,ioos:station:wmo:42377:1,2012-10-03T14:24:00Z,27.2930,-90.9680,21.3,123.0,28.2,-9999.0,'11111222,11111222,99999999' 
ADCP,ioos:station:wmo:42377:1,2012-10-03T14:44:00Z,27.2930,-90.9680,21.3,139.0,22.6,-9999.0,'11111222,11111222,99999999' 
ADCP,ioos:station:wmo:42377:1,2012-10-03T15:04:00Z,27.2930,-90.9680,21.3,155.0,20.7,-9999.0,'11111222,11111222,99999999' 
ADCP,ioos:station:wmo:42377:1,2012-10-03T15:24:00Z,27.2930,-90.9680,21.3,165.0,15.6,-9999.0,'11111222,11111222,99999999' 
ADCP,ioos:station:wmo:42377:1,2012-10-03T15:44:00Z,27.2930,-90.9680,21.3,160.0,12.8,-9999.0,'11111222,11111222,99999999' 
ADCP,ioos:station:wmo:42377:1,2012-10-03T16:04:00Z,27.2930,-90.9680,21.3,131.0,14.7,-9999.0,'11111222,11111222,99999999' 
ADCP,ioos:station:wmo:42377:1,2012-10-03T16:24:00Z,27.2930,-90.9680,21.3,131.0,12.4,-9999.0,'11111222,11111222,99999999' 
ADCP,ioos:station:wmo:42377:1,2012-10-03T16:44:00Z,27.2930,-90.9680,21.3,128.0,11.6,-9999.0,'11111222,11111222,99999999' 